Tracking 35055 objects as of 18-Aug-2026
HD Live streaming from Space Station
objects crossing your sky now

FOREST-18 MANGOSHRIKHAND

Track FOREST-18 MANGOSHRIKHAND now!
10-day predictions


NORAD ID: 68999
Int'l Code: 2026-100V
Launch date: May 3, 2026
Source: Germany (GER)
Launch site: AIR FORCE WESTERN TEST RANGE (AFWTR)
Your satellite tracking list
Your tracking list is empty




NASA's NSSDC Master Catalog

Two Line Element Set (TLE):
1 68999U 26100V   26229.27343486  .00003210  00000-0  31529-3 0  9997
2 68999  97.7237 125.6161 0002132  61.1899 298.9534 14.92852329 15812
Source of the keplerian elements: AFSPC